Content
SEND FEEDBACK

Daily
Averages
Monthly
Summary
United States of America

ST. LOUIS, MISSOURI


Home > North America > United States > Missouri
Elevation: 163 meters     Latitude: 38 45N     Longitude: 090 22W

WEATHER
 
SELECT A DAY
Number of Records: 196,588;   Date Range: 1/1/95 - 9/3/14
 
SHARE

PRINT THIS DATA

[ ← Previous Day ]
WEATHER ALMANAC - 27 JANUARY, 2013
[ Next Day → ]
[ °F ]   °C
Weather ElementAverageHighLow
Temperature4.2 °C12.8 °C (11:54 pm)-1.1 °C (1:54 am)
Dewpoint1.4 °C10.6 °C (11:54 pm)-8.3 °C (1:54 am)
Humidity82.6 %93 % (6:23 pm)56 % (4:54 am)
Barometer1019.6 hPa1026.4 hPa (1:54 am)1013.9 hPa (5:16 pm)
Wind Speed10.8 km/h18.5 km/h (6:54 pm)
Wind Gust33.3 km/h (7:54 pm)
Weather ElementAverage
Visibility10.9 km
Wind DirectionESE (123.2 °)

Weather ElementTotal
Precipitation9.14 mm
Heating Degree Days12.5 (Base 18.3)
Averaged from 37 records on 27 January, 2013
WEATHER CONDITIONS BREAKOUT
WIND DIRECTION BREAKOUT
WEATHER BY HOUR - 27 JANUARY, 2013
[ °F ]   °C
Local TimeTemperatureDewpointHumidityBarometerVisibilityWind DirectionWind SpeedGust SpeedPrecipitationEventsConditions
1:54 AM-1.1 °C-8.3 °C59 %1026.4 hPa16.1 kmEast (100°)9.3 km/hClear
2:54 AM-0.6 °C-8.3 °C57 %1026.4 hPa16.1 kmCalmClear
3:54 AM-0.6 °C-7.8 °C59 %1025.1 hPa16.1 kmSE (130°)7.4 km/hScattered Clouds
4:54 AM0 °C-7.8 °C56 %1024.7 hPa16.1 kmESE (110°)7.4 km/hOvercast
5:54 AM-0.6 °C-5 °C72 %1024.4 hPa12.9 kmESE (110°)9.3 km/h0.25 mmOvercast
6:08 AM-1 °C-4 °C80 %1023.4 hPa11.3 kmESE (110°)11.1 km/h0 mmRainLight Freezing Rain
6:52 AM-1 °C-4 °C80 %1022.7 hPa14.5 kmESE (120°)11.1 km/h0 mmOvercast
6:54 AM-0.6 °C-3.9 °C79 %1023.7 hPa14.5 kmESE (120°)11.1 km/h0 mmOvercast
7:25 AM0 °C-3 °C80 %1023 hPa11.3 kmSE (130°)11.1 km/h0.25 mmRainLight Freezing Rain
7:54 AM0 °C-2.8 °C82 %1024.4 hPa11.3 kmCalm0.25 mmRainLight Freezing Rain
8:54 AM0.6 °C-2.2 °C82 %1023.4 hPa4 kmEast (90°)11.1 km/h0.25 mmRainLight Freezing Rain
9:11 AM1 °C-2 °C81 %1022.4 hPa4.8 kmSE (130°)9.3 km/h0.25 mmRainLight Freezing Rain
9:26 AM1 °C-2 °C81 %1022.4 hPa6.4 kmEast (100°)9.3 km/h0.25 mmRainLight Rain
9:54 AM0.6 °C-1.1 °C89 %1023.4 hPa4.8 kmVariable7.4 km/h0.51 mmRainLight Rain
10:13 AM1 °C-1 °C87 %1022.4 hPa4 kmEast (100°)7.4 km/h0.25 mmRainLight Rain
10:22 AM1 °C-1 °C87 %1022 hPa1.9 kmEast (100°)9.3 km/h0.51 mmRainLight Rain
10:29 AM1 °C-1 °C87 %1021.7 hPa1.9 kmESE (110°)11.1 km/h0.76 mmRainRain
10:43 AM1 °C-1 °C87 %1021.7 hPa3.2 kmESE (110°)11.1 km/h1.02 mmRainLight Rain
10:54 AM1.1 °C-0.6 °C89 %1022 hPa4 kmESE (110°)11.1 km/h1.27 mmRainLight Rain
11:54 AM1.7 °C0.6 °C92 %1020.3 hPa4 kmESE (110°)14.8 km/h2.79 mmRainLight Rain
12:54 PM3.3 °C1.7 °C89 %1019 hPa4.8 kmSE (140°)9.3 km/h0.25 mmOvercast
1:54 PM4.4 °C2.2 °C86 %1017.6 hPa6.4 kmSE (140°)11.1 km/hOvercast
2:54 PM5.6 °C3.9 °C89 %1016.6 hPa8 kmSE (130°)9.3 km/h0 mmOvercast
3:52 PM7 °C5 °C87 %1015.2 hPa9.7 kmVariable5.6 km/h0 mmOvercast
3:54 PM7.2 °C5 °C86 %1015.9 hPa9.7 kmVariable5.6 km/h0 mmOvercast
4:54 PM8.3 °C6.7 °C90 %1014.6 hPa11.3 kmSSE (150°)13 km/h27.8 km/h0.25 mmRainLight Rain
5:16 PM9 °C7 °C87 %1013.9 hPa16.1 kmSSE (160°)13 km/h0 mmMostly Cloudy
5:54 PM9.4 °C7.8 °C90 %1014.6 hPa16.1 kmSouth (190°)14.8 km/h25.9 km/h0 mmMostly Cloudy
6:23 PM9 °C8 °C93 %1013.9 hPa16.1 kmSouth (190°)16.7 km/h25.9 km/hMostly Cloudy
6:54 PM10 °C7.8 °C86 %1014.9 hPa16.1 kmSouth (190°)18.5 km/h29.6 km/hOvercast
7:54 PM10 °C8.3 °C89 %1014.9 hPa16.1 kmSouth (190°)18.5 km/h33.3 km/hMostly Cloudy
8:20 PM11 °C8 °C82 %1013.9 hPa16.1 kmSSW (200°)16.7 km/h31.5 km/hOvercast
8:54 PM10.6 °C8.3 °C86 %1014.9 hPa16.1 kmSSW (200°)16.7 km/hOvercast
9:31 PM11 °C9 °C88 %1014.6 hPa14.5 kmSSW (200°)11.1 km/hOvercast
9:54 PM11.1 °C8.9 °C86 %1014.9 hPa14.5 kmSouth (180°)13 km/hOvercast
10:54 PM11.7 °C10 °C89 %1014.9 hPa16.1 kmSSW (210°)11.1 km/h0 mmOvercast
11:54 PM12.8 °C10.6 °C86 %1014.6 hPa16.1 kmSSW (200°)14.8 km/hOvercast
Hourly data recorded from KSUS, located 0 kilometers away from St. Louis, Missouri







STORIES FROM OUR PARTNERS